{"data":{"norad_id":41036,"epoch":"2026-09-20T03:09:51.018336Z","epoch_age_seconds":53859,"freshness":"FRESH","line1":"1 41036U 15068A   26263.13184049 -.00000123  00000+0  00000+0 0  9998","line2":"2 41036   0.0174 209.9003 0002204 317.5783 224.0271  1.00272752 39571","mean_motion":1.00272752,"eccentricity":0.0002204,"inclination_deg":0.0174,"raan_deg":209.9003,"arg_perigee_deg":317.5783,"mean_anomaly_deg":224.0271,"bstar":0,"rev_number":3957,"period_min":1436.0830547465,"perigee_km":35777.030830989,"apogee_km":35795.616925344,"semimajor_km":42164.460878166,"source":"CELESTRAK","updated_at":"2026-09-20T09:00:35.221661Z"}}